Location: Melbourne
(37.8170°S, 144.9670°E)
Time: 10:21:14
(UTC+10:00)

deb Explorer IX - All Passes

Search period start: 02 October 2014 00:00
Search period end: 12 October 2014 01:00
Orbit: 559 x 1214 km, 38.8° (Epoch: 01 October)

Date Brightness Start Highest point End Pass type
(mag) Time Alt. Az. Time Alt. Az. Time Alt. Az.
02 Oct - 01:34:17 10° WNW 01:41:53 70° NNE 01:48:28 10° ESE visible
02 Oct - 03:23:36 10° W 03:30:47 82° S 03:36:47 10° E visible
02 Oct - 05:13:05 10° W 05:19:34 78° NNW 05:24:53 10° ENE visible
02 Oct - 07:02:42 10° W 07:07:31 28° NW 07:11:40 10° NNE daylight
02 Oct - 22:00:43 10° NNE 22:02:22 11° NE 22:04:00 10° ENE night (unlit)
02 Oct - 23:43:16 10° NNW 23:50:21 37° NNE 23:56:54 10° E night (unlit)
03 Oct - 01:31:17 10° WNW 01:39:00 78° NNE 01:45:42 10° ESE visible
03 Oct - 03:20:44 10° W 03:27:59 82° S 03:34:03 10° E visible
03 Oct - 05:10:12 10° WSW 05:16:43 69° NNW 05:22:05 10° ENE visible
03 Oct - 07:00:06 10° W 07:04:30 23° NW 07:08:22 10° NNE daylight
03 Oct - 21:55:12 10° NNE 21:59:13 15° NE 22:03:11 10° ENE night (unlit)
03 Oct - 23:39:54 10° NW 23:47:19 44° NNE 23:54:12 10° E night (unlit)
04 Oct - 01:28:19 10° WNW 01:36:06 85° NNE 01:42:54 10° E visible
04 Oct - 03:17:49 10° W 03:25:09 84° S 03:31:17 10° E visible
04 Oct - 05:07:18 10° W 05:13:49 60° NNW 05:19:12 10° NE visible
04 Oct - 06:57:39 10° W 07:01:25 18° NW 07:04:49 10° N daylight
04 Oct - 21:50:51 10° N 21:56:04 19° NE 22:01:13 10° E night (unlit)
04 Oct - 23:36:38 10° NW 23:44:17 52° NNE 23:51:25 10° E night (unlit)
05 Oct - 01:25:21 10° WNW 01:33:11 90° S 01:40:04 10° E visible
05 Oct - 04:14:53 10° W 04:22:17 87° S 04:28:29 10° E visible
05 Oct - 06:04:23 10° W 06:10:51 51° NNW 06:16:13 10° NE visible
05 Oct - 07:55:28 10° WNW 07:58:17 14° NW 08:00:53 10° NNW daylight
05 Oct - 22:46:52 10° NNW 22:52:53 24° NE 22:58:51 10° E night (unlit)
06 Oct - 00:33:26 10° NW 00:41:14 61° NNE 00:48:34 10° ESE night (unlit)
06 Oct - 02:22:23 10° W 02:30:16 86° S 02:37:12 10° E visible
06 Oct - 04:11:55 10° W 04:19:23 89° NNW 04:25:39 10° ENE visible
06 Oct - 06:01:28 10° W 06:07:48 43° NNW 06:13:08 10° NE visible
06 Oct - 07:54:35 10° NW 07:55:04 10° NW 07:55:34 10° NW daylight
06 Oct - 22:43:08 10° NNW 22:49:41 30° NE 22:56:15 10° E night (unlit)
07 Oct - 00:30:17 10° WNW 00:38:11 69° NNE 00:45:39 10° ESE night (unlit)
07 Oct - 02:19:24 10° W 02:27:19 84° S 02:34:20 10° E visible
07 Oct - 04:08:55 10° W 04:16:25 82° NNW 04:22:45 10° ENE visible
07 Oct - 05:58:34 10° W 06:04:42 36° NNW 06:09:55 10° NNE visible
07 Oct - 22:39:32 10° NNW 22:46:29 36° NE 22:53:29 10° E visible
08 Oct - 00:27:10 10° WNW 00:35:08 76° NNE 00:42:42 10° ESE night (unlit)
08 Oct - 02:16:24 10° W 02:24:21 83° S 02:31:25 10° E visible
08 Oct - 04:05:53 10° WSW 04:13:25 75° NNW 04:19:48 10° ENE visible
08 Oct - 05:55:42 10° W 06:01:32 30° NW 06:06:33 10° NNE visible
08 Oct - 20:52:15 10° NNE 20:55:27 13° NE 20:58:43 10° ENE visible
08 Oct - 22:36:04 10° NW 22:43:17 43° NNE 22:50:37 10° E visible
09 Oct - 00:24:04 10° WNW 00:32:04 83° NNE 00:39:43 10° E night (unlit)
09 Oct - 02:13:23 10° W 02:21:21 84° S 02:28:29 10° E visible
09 Oct - 04:02:49 10° WSW 04:10:20 67° NNW 04:16:46 10° ENE visible
09 Oct - 05:52:55 10° W 05:58:17 24° NW 06:03:01 10° NNE visible
09 Oct - 20:47:35 10° N 20:52:06 17° NE 20:56:48 10° E visible
09 Oct - 22:32:41 10° NW 22:40:04 50° NNE 22:47:40 10° E visible
10 Oct - 00:21:00 10° WNW 00:29:00 89° NNE 00:36:43 10° E night (unlit)
10 Oct - 02:10:19 10° W 02:18:19 86° S 02:25:31 10° E visible
10 Oct - 03:59:45 10° WSW 04:07:13 58° NNW 04:13:38 10° NE visible
10 Oct - 05:50:16 10° W 05:55:00 19° NW 05:59:15 10° N visible
10 Oct - 20:43:25 10° N 20:48:45 22° NE 20:54:22 10° E visible
10 Oct - 22:29:22 10° NW 22:36:52 58° NNE 22:44:38 10° ESE visible
11 Oct - 00:17:55 10° W 00:25:55 87° S 00:33:40 10° E visible
11 Oct - 02:07:14 10° W 02:15:15 90° S 02:22:31 10° E visible
11 Oct - 03:56:40 10° W 04:04:01 50° NNW 04:10:25 10° NE visible
11 Oct - 05:47:52 10° WNW 05:51:38 15° NW 05:55:08 10° NNW visible
11 Oct - 20:39:32 10° NNW 20:45:23 27° NE 20:51:40 10° E visible
11 Oct - 22:26:06 10° WNW 22:33:39 66° NNE 22:41:33 10° ESE visible
12 Oct - 00:14:50 10° W 00:22:49 85° S 00:30:37 10° E visible
